Regional Weather Roundup
Issued by NWS Cleveland, OH

Home | Current Version | Previous Version | Text Only | Print | Product List | Glossary Off
Versions: 1 2 3 4 5 6 7 8 9 10 11 12 13 14 15 16 17 18 19 20 21 22 23 24 25 26 27 28 29 30 31 32 33 34 35 36 37 38 39 40 41 42 43 44 45 46 47 48 49 50

318
ASUS41 KCLE 271500
RWRCLE
OHIO REGIONAL WEATHER ROUNDUP
NATIONAL WEATHER SERVICE WILMINGTON, OH
1100 AM EDT MON MAR 27 2017

NOTE: "FAIR" INDICATES FEW OR NO CLOUDS BELOW 12,000 FEET WITH NO
SIGNIFICANT WEATHER AND/OR OBSTRUCTIONS TO VISIBILITY.

OHZ001>008-015>018-024>027-034-035-043-044-271600-
   NORTHWEST OHIO

CITY           SKY/WX    TMP DP  RH WIND       PRES   REMARKS
DEFIANCE       CLOUDY    52  49  89 SW8       29.98R
FINDLAY        CLOUDY    55  48  77 W14       29.97R
TOLEDO EXPRESS CLOUDY    53  49  86 W15       29.96R
TOLEDO EXEC    CLOUDY    55  51  86 SW12      29.97R
LIMA           CLOUDY    53  50  89 W12       29.99R
$$

OHZ009>014-019>023-028>033-038-089-271600-
   NORTHEAST OHIO

CITY           SKY/WX    TMP DP  RH WIND       PRES   REMARKS
CLE-HOPKINS    CLOUDY    57  49  74 SW8       29.99S
CLE-LAKEFRONT  CLOUDY    57  51  80 SW13      29.96R
CUY CO. ARPT   CLOUDY    57  52  82 SW12      29.97R
LORAIN-ELYRIA  CLOUDY    54  49  83 W13       29.98R HAZE
ASHTABULA      CLOUDY    56  53  90 W6        29.97R
AKRON-CANTON   CLOUDY    57  50  77 SW13      29.99R
WOOSTER        NOT AVBL
MANSFIELD      CLOUDY    54  49  83 SW9       29.98S
YOUNGSTOWN     CLOUDY    56  50  80 SW9       29.99R
$$

OHZ042-051>053-060>062-070>072-077>081-271600-
  SOUTHWEST OHIO

CITY           SKY/WX    TMP DP  RH WIND       PRES   REMARKS
CINC-COVINGTON PTSUNNY   60  50  69 VRB3      30.01R
CINC-LUNKEN    FAIR      54  54 100 SW3       30.03R
HAMILTON       FAIR      61  52  72 CALM      30.02R
DAYTON         NOT AVBL
WRIGHT-PAT AFB FAIR      59  53  79 SW7       30.00S
DAYTON GENERAL FAIR      58  50  75 VRB3      30.00S
WILMINGTON     PTSUNNY   58  49  72 VRB5      30.01R
$$

OHZ036-037-039>041-045>050-054>059-063>069-073>076-082>088-271600-
  CENTRAL AND SOUTHEAST OHIO

CITY           SKY/WX    TMP DP  RH WIND       PRES   REMARKS
COLUMBUS       PTSUNNY   60  51  72 SW6       30.00S
OSU AIRPORT    PTSUNNY   59  51  75 W9        30.00S
BOLTON FIELD   SUNNY     57  50  77 W9        30.02R
RICKENBACK AFB NOT AVBL
NEWARK         FAIR      58  50  75 W10       30.01R
MARION         CLOUDY    54  49  83 SW10      30.00R
LANCASTER      FAIR      60  51  72 W8        30.02S
ZANESVILLE     PTSUNNY   58  50  75 W5        30.01S
NEW PHILLY     CLOUDY    57  51  80 SW6       30.01S
$$




USA.gov is the U.S. government's official web portal to all federal, state and local government web resources and services.